الصفحة الرئيسية
METAR-TAF:

METAR-TAF

مطار :

Raton Municipal Airport (Crews Field)

Raton, نيومكسيكو, الولايات المتحدة

دائرة عرض: 36-44-31N, خط طول: 104-39-28W, ارتفاع: 1935 متر

مراقبة الطقس الحالي

تاريخ ووقت الإصدار 13 دقيقة قبل الساعة 18:53UTC
ريح 9 عقدة من الشرق
درجة الحرارة 28°درجة مئوية
الرطوبة 28%
ضغط 1021 hPa
الرؤية: 16.1 كم
سماء صافية

METAR: KRTN 141853Z AUTO 09009KT 10SM CLR 28/08 A3015 RMK AO2 SLP113 T02830078

زمن: 13:06 (19:06 UTC)


TAF: مفقودة

أرصاد الطقس والتوقعات من أكثر من 4000 مطار (تقارير الطقس للمطار METAR والتنبؤ بالطقس بالمطارTAF).

المحطات المتاحة هي النقط الصفراء والحمراء على الخريطة.

حرك المؤشر فوق النقطة لمعرفة اسم المحطة.

ثم انقر لمعرفة أرصاد وتوقعات الطقس.

لتغيير الخارطة: اضغط على الأزرار الخضراء مع رمز الصليب الأسود للتكبير. على الزر الأخضر مع شرطة للتصغير، أو على الأسهم الخضراء للخرائط المجاورة.


METAR-TAF: